Regional Weather Roundup
Issued by NWS Sioux Falls, SD

Home | Current Version | Previous Version | Text Only | Print | Product List | Glossary On
Versions: 1 2 3 4 5 6 7 8 9 10 11 12 13 14 15 16 17 18 19 20 21 22 23 24 25 26 27 28 29 30 31 32 33 34 35 36 37 38 39 40 41 42 43 44 45 46 47 48 49 50
000
ASUS43 KFSD 280810
RWRFSD

WEATHER ROUNDUP FOR SE SOUTH DAKOTA/SW MINNESOTA/NW IOWA
NATIONAL WEATHER SERVICE SIOUX FALLS SD
300 AM CDT WED JUN 28 2017

NOTE: "FAIR" INDICATES FEW OR NO CLOUDS BELOW 12,000 FEET WITH NO
SIGNIFICANT WEATHER AND OR OBSTRUCTIONS TO VISIBILITY.


SDZ038>040-050-052>070-280900-
SOUTHEAST SOUTH DAKOTA

CITY           SKY/WX    TMP DP  RH WIND       PRES   REMARKS
BROOKINGS      LGT RAIN  67  63  87 S17       29.56F
CHAMBERLAIN    MOCLDY    70  55  59 SW7       29.58R
HURON          CLOUDY    70  61  73 S14       29.52R
MADISON        LGT RAIN  64  64 100 S9G22     29.57F
MITCHELL       CLOUDY    67  62  84 S12       29.56R
SIOUX FALLS    LGT RAIN  66  32  28 S7        29.56F
WINNER         FAIR      71  53  52 W13       29.60R
YANKTON        CLOUDY    65  64  97 S10       29.59F
$$

MNZ071-072-080-081-089-090-097-098-280900-
SOUTHWEST MINNESOTA

CITY           SKY/WX    TMP DP  RH WIND       PRES   REMARKS
FAIRMONT       RAIN      64  63  94 SW7       29.71R
LUVERNE        RAIN      64  63  94 N7        29.61F
MARSHALL       LGT RAIN  68  64  87 S24G38    29.56F
MONTEVIDEO     CLOUDY    66  61  82 S15       29.57F
PIPESTONE      TSTM      66  64  94 S9        29.63F
REDWOOD FALLS  TSTM      66  62  87 S21G28    29.62F FOG
TRACY          RAIN      65  62  87 S21G33    29.64R
WINDOM         TSTM      63  61  94 SE23G30   29.68F
WORTHINGTON    RAIN      63  61  94 E12       29.67F
$$

IAZ001>003-012>014-020>022-031-032-NEZ013-014-SDZ071-280900-
NORTHWEST IOWA

CITY           SKY/WX    TMP DP  RH WIND       PRES   REMARKS
ESTHERVILLE    TSTM      64  64 100 VRB3      29.67F VSB 3/4
SIOUX CITY     LGT RAIN  69  66  90 SW12      29.68F
SPENCER        LGT RAIN  69  66  90 S22G36    29.64F
STORM LAKE     CLOUDY    72  64  78 S17G31    29.69R
$$

ABBREVIATIONS USED IN REMARKS
   TC - TEMPERATURE IN CELSIUS
  WCI - WIND CHILL INDEX
   HX - HEAT INDEX
  VSB - VISIBILITY




USA.gov is the U.S. government's official web portal to all federal, state and local government web resources and services.